Regional Weather Roundup
Issued by NWS Cleveland, OH

Home | Current Version | Previous Version | Graphics & Text | Print | Product List | Glossary On
Versions: 1 2 3 4 5 6 7 8 9 10 11 12 13 14 15 16 17 18 19 20 21 22 23 24 25 26 27 28 29 30 31 32 33 34 35 36 37 38 39 40 41 42 43 44 45 46 47 48 49 50
000
ASUS41 KCLE 180810
RWRCLE
OHIO REGIONAL WEATHER ROUNDUP
NATIONAL WEATHER SERVICE CLEVELAND, OH
400 AM EDT SAT APR 18 2015

NOTE: "FAIR" INDICATES FEW OR NO CLOUDS BELOW 12,000 FEET WITH NO
SIGNIFICANT WEATHER AND/OR OBSTRUCTIONS TO VISIBILITY.

OHZ001>008-015>018-024>027-034-035-043-044-180900-
   NORTHWEST OHIO

CITY           SKY/WX    TMP DP  RH WIND       PRES   REMARKS
DEFIANCE       CLEAR     51  44  77 SW3       30.03R
FINDLAY        CLEAR     55  40  56 SW6       30.02R
TOLEDO EXPRESS PTCLDY    48  42  80 CALM      30.02R
TOLEDO EXEC    CLEAR     53  40  61 W5        30.03R
LIMA           CLEAR     56  41  57 SW3       30.04R
$$

OHZ009>014-019>023-028>033-038-089-180900-
   NORTHEAST OHIO

CITY           SKY/WX    TMP DP  RH WIND       PRES   REMARKS
CLE-HOPKINS    CLEAR     51  45  79 S5        30.02S
CLE-LAKEFRONT  CLEAR     56  46  69 S7        29.99R
CUY CO. ARPT   NOT AVBL
LORAIN-ELYRIA  CLEAR     51  43  74 SW5       30.01S
ASHTABULA      CLEAR     48  44  86 S5        30.02S
AKRON-CANTON   CLEAR     53  44  71 S5        30.03R
WOOSTER        CLEAR     46  43  89 CALM      30.03S
MANSFIELD      CLEAR     54  42  64 S5        30.03S
YOUNGSTOWN     CLEAR     47  44  90 S6        30.02S
$$

OHZ042-051>053-060>062-070>072-077>081-180900-
  SOUTHWEST OHIO

CITY           SKY/WX    TMP DP  RH WIND       PRES   REMARKS
CINC-COVINGTON CLEAR     55  45  68 CALM      30.06R
CINC-LUNKEN    CLEAR     50  50 100 N3        30.06S
HAMILTON       CLEAR     49  47  93 CALM      30.06F
DAYTON         CLEAR     57  40  52 CALM      30.06S
WRIGHT-PAT AFB CLEAR     51  45  80 E2        30.05R
DAYTON GENERAL CLEAR     56  40  55 CALM      30.05R
WILMINGTON     CLEAR     51  44  77 CALM      30.06R
$$

OHZ036-037-039>041-045>050-054>059-063>069-073>076-082>088-180900-
  CENTRAL AND SOUTHEAST OHIO

CITY           SKY/WX    TMP DP  RH WIND       PRES   REMARKS
COLUMBUS       PTCLDY    50  44  80 CALM      30.04R
OSU AIRPORT    CLEAR     51  44  77 W3        30.04R
BOLTON FIELD   CLEAR     46  44  93 CALM      30.05R
RICKENBACK AFB CLEAR     49  45  87 CALM      30.04R
NEWARK         CLEAR     46  43  89 CALM      30.04R
MARION         CLEAR     52  43  71 SW3       30.04R
LANCASTER      CLEAR     48  45  89 NW3       30.05R
ZANESVILLE     CLEAR     47  44  90 CALM      30.03R FOG
NEW PHILLY     CLEAR     47  43  86 CALM      30.04R FOG
$$



USA.gov is the U.S. government's official web portal to all federal, state and local government web resources and services.